[[{"header":{"parameterUnit":"m.s-1","parameterCategory":1,"la1":30.2991,"la2":30.254,"lo1":-89.0895,"lo2":-89.0444,"dy":0.0017,"dx":0.0017,"nx":28,"ny":28,"refTime":"2025-12-12T09:00:00:Z","depth":0,"parameterNumber":2,"parameterNumberName":"U-component_of_WINDS"},"data":[0,0,0,0,0,0,0,0,0,0,0,0,0,0,0,0,0,0,0,0,0,0,0,0,0,0,0,0,0,0,0,0,0,0,0,0,0,0,0,0,0,0,0,0,0,0,0,0,0,0,0,0,0,0,0,0,0,0,-0.2579,-0.2578,0,-0.2528,-0.2528,-0.2527,-0.2565,-0.2566,-0.2568,-0.257,-0.2514,-0.2511,-0.2508,0,0,0,0,0,0,0,0,0,0,0,0,0,-0.2701,-0.2699,-0.2579,-0.2578,-0.2578,-0.2529,-0.2528,-0.2527,-0.2564,-0.2566,-0.2568,-0.257,-0.2515,-0.2512,-0.2508,0,0,0,0,0,0,0,0,0,0,0,0,0,-0.2649,-0.2698,-0.2579,-0.259,-0.2591,-0.2529,-0.2528,-0.2527,-0.2564,-0.2567,-0.2569,-0.2571,-0.2516,-0.2512,-0.2507,-0.243,0,0,-0.2494,-0.2492,0,0,0,0,0,0,0,0,-0.2652,-0.2644,-0.2589,-0.259,-0.259,-0.2556,-0.2551,-0.2494,-0.2563,-0.2574,-0.257,-0.2573,-0.2526,-0.252,-0.2505,-0.2427,-0.2425,-0.2493,-0.249,-0.2489,-0.2487,0,0,0,0,0,0,0,-0.2655,-0.2647,-0.2559,-0.2589,-0.2589,-0.2596,-0.2591,-0.254,-0.2536,-0.2573,-0.2576,-0.257,-0.2526,-0.251,-0.2504,-0.2424,-0.2493,-0.2489,-0.2487,-0.2485,-0.2274,-0.2271,0,0,0,0,0,0,-0.2659,-0.265,-0.2561,-0.2557,-0.2628,-0.2592,-0.2587,-0.2564,-0.2537,-0.2536,-0.2568,-0.2572,-0.2516,-0.251,-0.2503,-0.2406,-0.2489,-0.2484,-0.2482,-0.2277,-0.2273,-0.227,0,0,0,0,0,0,-0.2661,-0.265,-0.2563,-0.2604,-0.2594,-0.2587,-0.2561,-0.2562,-0.2545,-0.2533,-0.2532,-0.2552,-0.2518,-0.2509,-0.2447,-0.2405,-0.2482,-0.2478,-0.228,-0.2276,-0.2272,-0.2215,0,0,0,0,0,0,-0.2665,-0.2651,-0.2624,-0.2603,-0.2591,-0.2509,-0.2559,-0.2559,-0.2538,-0.2543,-0.2518,-0.2516,-0.2519,-0.2453,-0.2442,-0.24,-0.2475,-0.2284,-0.2278,-0.2273,-0.222,-0.2209,-0.2199,0,0,0,0,0,-0.2669,-0.261,-0.2622,-0.2611,-0.2557,-0.2507,-0.25,-0.2506,-0.2535,-0.2505,-0.2496,-0.2517,-0.2412,-0.2447,-0.2434,-0.239,-0.2286,-0.228,-0.2273,-0.2225,-0.2211,-0.22,0,0,0,0,0,0,-0.2625,-0.2608,-0.2621,-0.2554,-0.2532,-0.2513,-0.2477,-0.2492,-0.246,-0.2466,-0.2473,-0.2467,-0.2401,-0.239,-0.2429,-0.2311,-0.2353,-0.2344,-0.232,-0.2307,-0.2297,-0.23,-0.2471,0,0,0,0,0,-0.2608,-0.2571,-0.2557,-0.2499,-0.2487,-0.2484,-0.2462,-0.2469,-0.2445,-0.2436,-0.2423,-0.2398,-0.2359,-0.2333,-0.2297,-0.2219,-0.2212,-0.2182,-0.2172,-0.2163,-0.2154,-0.2107,-0.2093,-0.2249,-0.2249,-0.2249,0,0,-0.2572,-0.2557,-0.2534,-0.249,-0.2473,-0.2431,-0.2476,-0.2431,-0.2399,-0.2429,-0.2368,-0.2357,-0.233,-0.2258,-0.2226,-0.2247,-0.211,-0.2155,-0.2148,-0.2144,-0.2099,-0.2084,-0.2071,-0.2244,-0.2245,-0.2246,0,0,-0.2484,-0.2471,-0.2419,-0.2401,-0.2375,-0.2373,-0.236,-0.2338,-0.2332,-0.2272,-0.2292,-0.2253,-0.2187,-0.2165,-0.2145,-0.2044,-0.2059,-0.2032,-0.1976,-0.193,-0.1918,-0.1907,-0.1866,-0.1852,-0.2023,-0.2023,-0.2023,0,-0.2441,-0.2381,-0.239,-0.2343,-0.2321,-0.2346,-0.2291,-0.2273,-0.2236,-0.2219,-0.2243,-0.2157,-0.2141,-0.2062,-0.2036,-0.2021,-0.2004,-0.2034,-0.1919,-0.1908,-0.1898,-0.1859,-0.1844,-0.202,-0.202,-0.2021,-0.2021,0,-0.2328,-0.2286,-0.2247,-0.221,-0.2184,-0.2133,-0.2132,-0.2104,-0.2111,-0.2105,-0.204,-0.2021,-0.1979,-0.1961,-0.1969,-0.1881,-0.1894,-0.1919,-0.1961,-0.1879,-0.1843,-0.1829,-0.2015,-0.2016,-0.2017,-0.2018,0,0,-0.2212,-0.2179,-0.2164,-0.2145,-0.2117,-0.2083,-0.2031,-0.1991,-0.1964,-0.1937,-0.1891,-0.1833,-0.1854,-0.1831,-0.1836,-0.1796,-0.171,-0.1824,-0.1824,-0.18,-0.1607,-0.1587,-0.157,-0.1722,-0.1719,-0.1717,-0.1608,0,-0.212,-0.2031,-0.2036,-0.1951,-0.191,-0.1931,-0.1885,-0.186,-0.1852,-0.1814,-0.1805,-0.1761,-0.1795,-0.178,-0.1742,-0.1729,-0.1671,-0.1738,-0.1675,-0.1673,-0.1678,-0.1552,-0.1531,-0.1429,-0.1595,-0.1592,-0.1591,0,-0.2001,-0.1968,-0.188,-0.1853,-0.1835,-0.1795,-0.1755,-0.1719,-0.169,-0.1687,-0.1659,-0.1669,-0.1613,-0.1658,-0.1578,-0.1622,-0.1597,-0.1586,-0.1583,-0.1575,-0.1625,-0.1536,-0.1398,-0.1381,-0.1569,-0.1571,-0.1572,0,-0.192,-0.1854,-0.1791,-0.1776,-0.1744,-0.1714,-0.1699,-0.1673,-0.1646,-0.1611,-0.1593,-0.1551,-0.1528,-0.1494,-0.149,-0.1524,-0.1408,-0.1454,-0.14,-0.1399,-0.1373,-0.1374,-0.1224,-0.1362,-0.1362,-0.1362,-0.1363,0,-0.1814,-0.1758,-0.1754,-0.1715,-0.1651,-0.1655,-0.1591,-0.1579,-0.1555,-0.1511,-0.1527,-0.1485,-0.1485,-0.1442,-0.1439,-0.137,-0.136,-0.1353,-0.1352,-0.135,-0.135,-0.1331,-0.1336,-0.1358,-0.1359,-0.136,-0.1361,0,-0.1713,-0.1709,-0.164,-0.1615,-0.1607,-0.1561,-0.1538,-0.1499,-0.1491,-0.1435,-0.1422,-0.141,-0.1359,-0.1353,-0.1294,-0.1291,-0.1207,-0.1216,-0.1216,-0.1216,-0.1161,-0.1165,-0.0991,-0.0966,-0.1124,-0.1123,-0.1121,0,-0.1645,-0.1601,-0.1571,-0.1543,-0.1526,-0.1482,-0.1454,-0.1455,-0.1425,-0.1386,-0.1351,-0.1301,-0.1262,-0.1178,-0.1162,-0.1115,-0.112,-0.1063,-0.1113,-0.111,-0.1114,-0.1115,-0.1108,-0.1052,-0.105,-0.1049,-0.1048,0,-0.1522,-0.1521,-0.1482,-0.1439,-0.1406,-0.1372,-0.1341,-0.1317,-0.1314,-0.1279,-0.1227,-0.1196,-0.1134,-0.1082,-0.1035,-0.1017,-0.1029,-0.1032,-0.1016,-0.1011,-0.1012,-0.1006,-0.1186,-0.1036,-0.1037,-0.1038,-0.1038,-0.1039,-0.1432,-0.1393,-0.1364,-0.1318,-0.1294,-0.1263,-0.1224,-0.1211,-0.1168,-0.1118,-0.1121,-0.1062,-0.1029,-0.0967,-0.0945,-0.0897,-0.0915,-0.0894,-0.0887,-0.0881,-0.0873,-0.1022,-0.0889,-0.0889,-0.0889,-0.089,-0.089,0,-0.1307,-0.1289,-0.1246,-0.1201,-0.1163,-0.118,-0.1145,-0.1112,-0.106,-0.1029,-0.0989,-0.0926,-0.0875,-0.0854,-0.0803,-0.0768,-0.0772,-0.0754,-0.0755,-0.0749,-0.0862,-0.0879,-0.0751,-0.0752,-0.0752,-0.0752,-0.0752,-0.0752,-0.1237,-0.117,-0.1165,-0.1084,-0.1066,-0.1009,-0.0986,-0.0956,-0.0931,-0.0861,-0.0819,-0.0805,-0.0776,-0.0723,-0.0675,-0.067,-0.0649,-0.0627,-0.0624,-0.0729,-0.0743,-0.0756,-0.0771,-0.0624,-0.0623,-0.0515,-0.0514,-0.0513]},{"header":{"parameterUnit":"m.s-1","parameterCategory":1,"la1":30.2991,"la2":30.254,"lo1":-89.0895,"lo2":-89.0444,"dy":0.0017,"dx":0.0017,"nx":28,"ny":28,"refTime":"2025-12-12T09:00:00:Z","depth":0,"parameterNumber":3,"parameterNumberName":"V-component_of_WINDS"},"data":[0,0,0,0,0,0,0,0,0,0,0,0,0,0,0,0,0,0,0,0,0,0,0,0,0,0,0,0,0,0,0,0,0,0,0,0,0,0,0,0,0,0,0,0,0,0,0,0,0,0,0,0,0,0,0,0,0,0,-0.9388,-0.9387,0,-0.9308,-0.9308,-0.9307,-0.931,-0.9311,-0.9312,-0.9313,-0.9226,-0.9222,-0.9219,0,0,0,0,0,0,0,0,0,0,0,0,0,-0.9536,-0.9534,-0.9388,-0.9387,-0.9386,-0.9309,-0.9307,-0.9306,-0.9309,-0.9311,-0.9312,-0.9313,-0.9227,-0.9223,-0.9219,0,0,0,0,0,0,0,0,0,0,0,0,0,-0.9466,-0.9533,-0.9388,-0.9379,-0.9377,-0.9309,-0.9307,-0.9306,-0.9309,-0.9311,-0.9312,-0.9314,-0.9228,-0.9223,-0.9218,-0.9153,0,0,-0.9203,-0.9201,0,0,0,0,0,0,0,0,-0.947,-0.946,-0.9381,-0.9379,-0.9377,-0.9321,-0.9328,-0.9255,-0.9309,-0.9335,-0.9313,-0.9315,-0.9256,-0.9248,-0.923,-0.9149,-0.9145,-0.9202,-0.9199,-0.9197,-0.9196,0,0,0,0,0,0,0,-0.9475,-0.9464,-0.9357,-0.938,-0.9377,-0.9376,-0.9368,-0.9314,-0.9286,-0.9333,-0.9333,-0.9323,-0.9255,-0.9234,-0.9228,-0.9144,-0.9202,-0.9198,-0.9195,-0.9193,-0.9001,-0.8999,0,0,0,0,0,0,-0.9482,-0.9468,-0.9359,-0.9354,-0.9429,-0.9372,-0.9363,-0.9337,-0.9287,-0.9281,-0.9322,-0.9324,-0.9242,-0.9233,-0.9224,-0.9141,-0.9197,-0.9192,-0.9189,-0.9003,-0.9001,-0.8998,0,0,0,0,0,0,-0.9486,-0.9473,-0.9362,-0.9411,-0.9397,-0.9367,-0.9339,-0.9335,-0.9314,-0.9279,-0.9274,-0.9307,-0.9243,-0.9232,-0.917,-0.9138,-0.919,-0.9186,-0.9006,-0.9002,-0.9,-0.8977,0,0,0,0,0,0,-0.949,-0.9474,-0.9451,-0.941,-0.9394,-0.9311,-0.9337,-0.9332,-0.9306,-0.9308,-0.9263,-0.9257,-0.9244,-0.9178,-0.9165,-0.9132,-0.9182,-0.9008,-0.9004,-0.9,-0.898,-0.8973,-0.8967,0,0,0,0,0,-0.9495,-0.9447,-0.9449,-0.9436,-0.9365,-0.931,-0.93,-0.9287,-0.9304,-0.9278,-0.9255,-0.9259,-0.9145,-0.9171,-0.9157,-0.9123,-0.901,-0.9005,-0.9001,-0.8983,-0.8975,-0.8968,0,0,0,0,0,0,-0.9483,-0.9442,-0.9444,-0.9382,-0.9349,-0.931,-0.9278,-0.9279,-0.924,-0.9242,-0.9226,-0.9216,-0.9153,-0.9132,-0.9163,-0.9055,-0.9079,-0.9071,-0.907,-0.9062,-0.9056,-0.9061,-0.9177,0,0,0,0,0,-0.9474,-0.9434,-0.94,-0.9348,-0.9332,-0.9308,-0.9283,-0.9276,-0.9241,-0.9226,-0.9199,-0.9163,-0.9119,-0.909,-0.9047,-0.8978,-0.8966,-0.8947,-0.894,-0.8935,-0.8928,-0.8885,-0.8875,-0.8983,-0.8983,-0.8983,0,0,-0.9453,-0.9425,-0.9401,-0.9345,-0.9319,-0.9275,-0.9296,-0.9251,-0.9217,-0.9219,-0.9159,-0.9137,-0.9096,-0.9029,-0.8998,-0.9009,-0.8895,-0.8929,-0.8926,-0.8921,-0.8879,-0.8869,-0.886,-0.898,-0.8981,-0.8981,0,0,-0.9392,-0.9369,-0.9322,-0.9295,-0.9256,-0.924,-0.9228,-0.9189,-0.9175,-0.9115,-0.9114,-0.9073,-0.8998,-0.8967,-0.8942,-0.8867,-0.8867,-0.8854,-0.8819,-0.8778,-0.8769,-0.8761,-0.8731,-0.872,-0.8847,-0.8847,-0.8847,0,-0.937,-0.9308,-0.9297,-0.925,-0.9224,-0.9225,-0.9175,-0.9149,-0.9097,-0.9077,-0.9091,-0.8995,-0.8967,-0.8891,-0.8872,-0.8853,-0.8837,-0.8858,-0.8772,-0.8764,-0.8756,-0.8727,-0.8716,-0.8846,-0.8846,-0.8846,-0.8846,0,-0.9281,-0.9237,-0.9203,-0.9153,-0.9123,-0.9075,-0.9055,-0.9025,-0.902,-0.9002,-0.8938,-0.8905,-0.8854,-0.8836,-0.883,-0.8757,-0.8765,-0.8776,-0.8799,-0.8745,-0.8716,-0.8705,-0.8843,-0.8844,-0.8844,-0.8845,0,0,-0.9209,-0.9154,-0.9141,-0.9117,-0.9073,-0.9037,-0.8988,-0.8939,-0.8912,-0.8876,-0.8831,-0.8767,-0.8775,-0.8747,-0.8737,-0.8702,-0.8639,-0.8716,-0.8714,-0.8699,-0.8551,-0.8541,-0.8528,-0.864,-0.8638,-0.8636,-0.8553,0,-0.9141,-0.9055,-0.9043,-0.8966,-0.8922,-0.8922,-0.8878,-0.8844,-0.8826,-0.8784,-0.8763,-0.8716,-0.8733,-0.8715,-0.868,-0.8654,-0.8608,-0.8661,-0.8594,-0.8592,-0.8601,-0.8514,-0.8504,-0.8427,-0.8543,-0.8541,-0.854,0,-0.905,-0.9012,-0.893,-0.8889,-0.887,-0.8831,-0.8783,-0.8746,-0.8706,-0.8694,-0.8661,-0.8656,-0.8601,-0.8629,-0.8551,-0.8586,-0.8558,-0.8541,-0.8538,-0.8528,-0.856,-0.8498,-0.8403,-0.839,-0.8523,-0.8524,-0.8525,0,-0.9001,-0.8929,-0.887,-0.885,-0.8801,-0.8773,-0.8751,-0.8714,-0.8684,-0.8642,-0.8622,-0.8574,-0.8546,-0.8508,-0.8488,-0.8511,-0.8409,-0.8437,-0.8394,-0.8395,-0.837,-0.8371,-0.8265,-0.8359,-0.8359,-0.836,-0.836,0,-0.8924,-0.8873,-0.8847,-0.881,-0.8752,-0.8738,-0.8679,-0.8658,-0.8624,-0.858,-0.8578,-0.8536,-0.8515,-0.8469,-0.8454,-0.8388,-0.8377,-0.8363,-0.8359,-0.8361,-0.8362,-0.834,-0.8343,-0.8356,-0.8357,-0.8358,-0.8358,0,-0.8858,-0.884,-0.8774,-0.8734,-0.8722,-0.868,-0.8644,-0.8606,-0.8588,-0.8532,-0.8518,-0.8488,-0.8434,-0.8411,-0.8345,-0.8334,-0.8258,-0.826,-0.8271,-0.8269,-0.8226,-0.8229,-0.8099,-0.8079,-0.819,-0.8189,-0.8188,0,-0.8809,-0.8769,-0.8724,-0.8696,-0.8673,-0.8627,-0.8597,-0.8581,-0.8549,-0.8499,-0.8466,-0.8413,-0.8369,-0.8282,-0.8252,-0.82,-0.8198,-0.8156,-0.819,-0.8192,-0.8192,-0.8193,-0.8186,-0.8148,-0.8147,-0.8147,-0.8146,0,-0.8721,-0.8713,-0.8671,-0.8624,-0.8588,-0.855,-0.8513,-0.8489,-0.8466,-0.843,-0.8375,-0.8341,-0.8273,-0.8218,-0.8164,-0.8138,-0.8136,-0.8136,-0.8122,-0.8122,-0.8129,-0.812,-0.825,-0.8138,-0.8139,-0.8139,-0.814,-0.814,-0.8659,-0.8623,-0.8584,-0.8536,-0.8506,-0.8471,-0.8432,-0.8409,-0.8364,-0.8308,-0.8301,-0.8241,-0.8198,-0.8126,-0.8098,-0.8049,-0.8059,-0.8041,-0.8035,-0.803,-0.8025,-0.814,-0.8039,-0.804,-0.804,-0.804,-0.804,0,-0.8568,-0.8543,-0.8499,-0.8446,-0.8407,-0.8412,-0.837,-0.8336,-0.8284,-0.8246,-0.8203,-0.8137,-0.8083,-0.8049,-0.7994,-0.7961,-0.7958,-0.7946,-0.7946,-0.7939,-0.8021,-0.8036,-0.7949,-0.7949,-0.7949,-0.7949,-0.7949,-0.7949,-0.8515,-0.8452,-0.8439,-0.836,-0.8335,-0.8278,-0.8253,-0.8219,-0.8188,-0.8116,-0.8071,-0.805,-0.8012,-0.7953,-0.7903,-0.7894,-0.7871,-0.7858,-0.7849,-0.7925,-0.7934,-0.7943,-0.7957,-0.7855,-0.7854,-0.7771,-0.777,-0.7769]}]]